FW0442 Weather Reports


time (UTC)temp
C
wind
direction
speed
KPH
gust
KPH
rain 1hr
cm
rain 24hr
cm
rain mn
cm
humidity
%
barometer
mb
20260510224431 6 80 0.0 3.2 0.00 0.00 0.00 80 1014.3
20260510221432 7 4 0.0 9.7 0.00 0.00 0.00 77 1014.5
20260510214431 8 41 3.2 8.0 0.00 0.00 0.00 75 1014.5
20260510211432 8 41 1.6 4.8 0.00 0.00 0.00 74 1014.7
20260510204432 7 39 0.0 0.0 0.00 0.00 0.00 76 1014.3
20260510194431 10 0 0.0 3.2 0.00 0.00 0.00 64 1014.4
20260510191432 11 39 1.6 8.0 0.00 0.00 0.00 61 1014.6
20260510184431 11 6 3.2 9.7 0.00 0.00 0.00 59 1014.7
20260510181431 12 45 4.8 8.0 0.00 0.00 0.00 58 1014.7
20260510174431 11 7 1.6 11.3 0.00 0.00 0.00 58 1014.6
20260510171433 12 357 4.8 11.3 0.00 0.00 0.00 57 1014.8
20260510164431 13 354 4.8 14.5 0.00 0.00 0.00 57 1015.2
20260510154430 13 344 8.0 16.1 0.00 0.00 0.00 56 1015.7
20260510151429 13 30 4.8 17.7 0.00 0.00 0.00 57 1016.1
20260510144428 13 326 4.8 16.1 0.00 0.00 0.00 61 1016.3
20260510141427 13 55 4.8 17.7 0.00 0.00 0.00 59 1016.6
20260510134427 13 337 4.8 14.5 0.00 0.00 0.00 64 1016.8
20260510131427 12 17 4.8 16.1 0.00 0.00 0.00 65 1017.2
20260510124425 12 23 3.2 17.7 0.00 0.00 0.00 69 1017.4
20260510121424 12 69 6.4 17.7 0.00 0.00 0.00 71 1017.8
20260510114424 11 44 4.8 17.7 0.00 0.00 0.00 71 1018.2
20260510111423 10 68 3.2 16.1 0.00 0.00 0.00 77 1018.6
20260510104424 10 355 3.2 14.5 0.00 0.00 0.00 77 1018.9
20260510101420 10 66 3.2 17.7 0.00 0.00 0.00 79 1018.9
20260510091421 9 0 6.4 16.1 0.00 0.00 0.00 81 1019.4
20260510084420 9 302 4.8 11.3 0.00 0.00 0.00 83 1019.4
20260510081420 8 51 4.8 14.5 0.00 0.00 0.00 84 1019.5
20260510074419 8 68 4.8 14.5 0.00 0.00 0.00 86 1019.4
20260510061417 8 347 1.6 11.3 0.00 0.00 0.00 89 1019.2
20260510054416 8 351 1.6 9.7 0.00 0.00 0.00 91 1019.1
20260510051415 8 25 4.8 9.7 0.00 0.00 0.00 91 1019.1
20260510044415 8 56 1.6 14.5 0.00 0.00 0.00 91 1019.1
20260510041416 8 24 1.6 19.3 0.00 0.00 0.00 91 1019.2
20260510034414 8 28 4.8 14.5 0.00 0.00 0.00 91 1019.3
20260510031414 8 114 6.4 11.3 0.00 0.03 0.00 92 1019.3
20260510021415 8 34 3.2 14.5 0.00 0.03 0.00 92 1019.6
20260510014411 8 45 6.4 19.3 0.00 0.03 0.00 92 1019.6
20260510001409 10 20 8.0 20.9 0.00 0.03 0.00 89 1019.2
20260509234409 10 3 9.7 17.7 0.00 0.03 0.00 87 1019.2
20260509231408 10 312 3.2 16.1 0.00 0.03 0.00 88 1019.3